Regional Weather Roundup
Issued by NWS New Orleans/Baton Rouge, LA

Home | Current Version | Previous Version | Text Only | Print | Product List | Glossary On
Versions: 1 2 3 4 5 6 7 8 9 10 11 12 13 14 15 16 17 18 19 20 21 22 23 24 25 26 27 28 29 30 31 32 33 34 35 36 37 38 39 40 41 42 43 44 45 46 47 48 49 50
170
ASUS44 KLIX 060501
RWRLIX
NEW ORLEANS REGIONAL WEATHER ROUNDUP
NATIONAL WEATHER SERVICE NEW ORLEANS LA
1100 PM CST THU MAR 05 2015

NOTE: "FAIR" INDICATES FEW OR NO CLOUDS BELOW 12,000 FEET WITH NO
      SIGNIFICANT WEATHER AND/OR OBSTRUCTIONS TO VISIBILITY.
      SKY/WX - SKY CONDITION AND SIGNIFICANT WEATHER.
      TMP - AIR TEMPERATURE.     DP    - DEWPOINT TEMPERATURE.
      RH  - RELATIVE HUMIDITY.   PRES  - PRESSURE.
      HI  - HEAT INDEX.          WCI   - WIND CHILL INDEX.

*  THESE STATIONS ARE NOT NWS OR FAA STATIONS AND ARE NOT UNDER
   NWS QUALITY CONTROL.

LAZ038-040-048-061>063-065>067-069-060600-
SOUTHEAST LOUISIANA

CITY           SKY/WX    TMP DP  RH WIND       PRES   REMARKS
N.O. AUDUBON   NOT AVBL
N.O. INTL ARPT PTCLDY    35  23  61 N23       30.46R WCI  23
N.O. LAKEFRONT PTCLDY    38  25  59 N29G36    30.47R WCI  26
SLIDELL        PTCLDY    33  21  61 N15G24    30.45S WCI  23
BATON ROUGE    CLEAR     31  19  61 N8        30.52R WCI  23
BOOTHVILLE     CLOUDY    42  31  64 N15G24    30.39F
BELLE CHASSE   MOCLDY    37  22  54 N12G22    30.44R WCI  29
BOGALUSA*        N/A     33  26  76 N8        30.50S WCI  25
GALLIANO*      MOCLDY    40  28  63 N15G24    30.43F WCI  31
NEW ROADS*     NOT AVBL
GONZALES*      NOT AVBL
HAMMOND*       NOT AVBL
HOUMA*         PTCLDY    34  25  69 N14       30.46R WCI  25
PORT FOURCHON* MOCLDY    41  27  56 N24G32    30.44F

$$

MSZ070-080>082-060600-
SOUTHERN MISSISSIPPI

CITY           SKY/WX    TMP DP  RH WIND       PRES   REMARKS
MCCOMB         CLEAR     28  17  63 N12       30.49F WCI  18
GULFPORT       PTCLDY    34  21  59 N20       30.43R WCI  23
BILOXI         MOCLDY    34  23  64 N21       30.42S WCI  23
PASCAGOULA     MOCLDY    33  24  69 N20G29    30.41S WCI  21

$$

COASTAL OBSERVATIONS
LAKE AND NEARSHORE STATIONS

STATION/POSITION TIME  TEMP    WIND        PRES    WAVE
                       AIR SEA DIR/SP/G            HT/PER
                 (UTC) (F)     (DEG/KT/KT) (MB)    (FT/S)
PASCAGOULA       0422   36      10/ 13/ 20 1028.9
WAVELAND YACHT   0422   35 51   10/ 21/ 25 1030.0
GRAND ISLE       0422   41 61   20/ 20/ 28 1029.8
SOUTHWEST PASS   0422   44 44   20/ 26/ 31 1028.8
NEW CANAL        0422   38      10/ 23/ 29 1031.5
SHELL BEACH      0422   38 57  360/ 25/ 29 1030.4

OFFSHORE STATIONS

STATION/POSITION TIME  TEMP    WIND        PRES    WAVE
                       AIR SEA DIR/SP/G            HT/PER
                 (UTC) (F)     (DEG/KT/KT) (MB)    (FT/S)
64 S DAUPHIN ISL 0357   47 68   30/ 27/ 35 1027.4    9/ 7

$$




USA.gov is the U.S. government's official web portal to all federal, state and local government web resources and services.